(192812) = 1999 VO69

Discovered at Socorro on 1999-11-04 by LINEAR.

Orbit

Orbit type: Main Belt

Note: WebGL enabled browser required.

epoch2024-03-31.0
epoch JD2460400.5
perihelion date2022-03-07.75891
perihelion JD2459646.25891
argument of perihelion (°)170.10650
ascending node (°)226.89965
inclination (°)1.42287
eccentricity0.1225938
perihelion distance (AU)2.3842616
Tisserand w.r.t. Jupiter3.3
ΔV w.r.t. Earth (km/sec)9.7
semimajor axis (AU)2.7173976
mean anomaly (°)165.95267
mean daily motion (°/day)0.22002600
aphelion distance (AU)3.051
period (years)4.48
P-vector [x]0.79853222
P-vector [y]0.55056926
P-vector [z]0.24335113
Q-vector [x]-0.60167896
Q-vector [y]0.74221443
Q-vector [z]0.29512737
absolute magnitude16.68
phase slope0.15
uncertainty0
referenceMPEC 2024-E179
observations used484
oppositions16
arc length (days)10389
first opposition used1994
last opposition used2023
residual rms (arc-secs)0.73
perturbers coarse indicatorM-v
perturbers precise indicator003Ek
first observation date used1994-09-02.0
last observation date used2023-02-11.0
computer nameMPCLINUX
JD of orbit computation2456731.466503
perihelion JD uncertainty (days)9.3179E-05
argument of perihelion uncertainty (°)1.7802E-04
ascending node uncertainty (°)1.7660E-04
inclination uncertainty (°)4.6703E-06
eccentricity uncertainty 4.3970E-08
perihelion distance uncertainty (AU)1.1924E-07
Minimum Orbit Intersection Distances (in AU)
for orbit epoch: 2460400.5, reference: E2024-G51
Mercury2.05795
Venus1.66146
Earth1.39157
Mars0.90547
Jupiter2.34709
Saturn6.44999
Uranus15.4939
Neptune27.4385

Observations

492 total observations over interval: 1994 09 02.23422 – 2023 02 11.221145
These data are available for download (format description).

Date (UT) J2000 RA J2000 Dec Magn Location Ref
1994 09 02.23422 21 57 49.49 -10 01 54.8 20.0 V 691 – Steward Observatory, Kitt Peak-Spacewatch MPS 133063
1994 09 02.25767 21 57 48.33 -10 02 00.9   691 – Steward Observatory, Kitt Peak-Spacewatch MPS 133063
1994 09 02.28140 21 57 47.13 -10 02 07.9   691 – Steward Observatory, Kitt Peak-Spacewatch MPS 133063
1999 10 10.36021 03 00 01.60 +17 33 22.7 20.1 V 691 – Steward Observatory, Kitt Peak-Spacewatch MPS 22312
1999 10 10.38245 03 00 00.86 +17 33 19.0 20.3 V 691 – Steward Observatory, Kitt Peak-Spacewatch MPS 22312
1999 10 10.40489 03 00 00.12 +17 33 15.3 20.2 V 691 – Steward Observatory, Kitt Peak-Spacewatch MPS 22312
1999 10 29.27783 02 46 26.09 +16 21 54.0 19.9 V 691 – Steward Observatory, Kitt Peak-Spacewatch MPS 22312
1999 10 29.29932 02 46 24.92 +16 21 48.2 19.9 V 691 – Steward Observatory, Kitt Peak-Spacewatch MPS 22312
1999 10 29.32099 02 46 23.75 +16 21 42.3 20.1 V 691 – Steward Observatory, Kitt Peak-Spacewatch MPS 22312
1999 11 04.33741 02 41 06.00 +15 53 12.1 19.6   704 – Lincoln Laboratory ETS, New Mexico MPS 7510
1999 11 04.35357 02 41 05.01 +15 53 07.1 19.3   704 – Lincoln Laboratory ETS, New Mexico MPS 7510
1999 11 04.38575 02 41 03.31 +15 52 57.7 19.7   704 – Lincoln Laboratory ETS, New Mexico MPS 7510
1999 11 09.21823 02 36 47.21 +15 29 24.6 19.5   704 – Lincoln Laboratory ETS, New Mexico MPS 8732
1999 11 09.23437 02 36 46.33 +15 29 19.3 20.0   704 – Lincoln Laboratory ETS, New Mexico MPS 8732
1999 11 09.24887 02 36 45.51 +15 29 14.9 20.0   704 – Lincoln Laboratory ETS, New Mexico MPS 8732
1999 11 12.22671 02 34 11.30 +15 14 50.2 19.2   704 – Lincoln Laboratory ETS, New Mexico MPS 7510
1999 11 12.24163 02 34 10.61 +15 14 46.8 19.8   704 – Lincoln Laboratory ETS, New Mexico MPS 7510
1999 11 12.25628 02 34 09.76 +15 14 42.7 19.6   704 – Lincoln Laboratory ETS, New Mexico MPS 7510
1999 11 12.27071 02 34 08.97 +15 14 37.9 19.7   704 – Lincoln Laboratory ETS, New Mexico MPS 7510
1999 11 12.28517 02 34 08.29 +15 14 33.3 19.8   704 – Lincoln Laboratory ETS, New Mexico MPS 7510
1999 11 16.27873 02 30 50.45 +14 55 45.6 20.1 V 691 – Steward Observatory, Kitt Peak-Spacewatch MPS 8732
1999 11 16.31045 02 30 48.87 +14 55 37.0 20.2 V 691 – Steward Observatory, Kitt Peak-Spacewatch MPS 8732
1999 11 16.33740 02 30 47.52 +14 55 29.3 20.3 V 691 – Steward Observatory, Kitt Peak-Spacewatch MPS 8732
2001 02 20.404060 10 48 39.165 +05 22 58.99 20.68 V 645 – Apache Point-Sloan Digital Sky Survey MPS 133063
2001 02 20.407532 10 48 38.989 +05 23 00.05 21.60   645 – Apache Point-Sloan Digital Sky Survey MPS 133063
2004 12 20.26096 07 52 51.88 +18 59 26.8 20.0 R G96 – Mt. Lemmon Survey MPS 133063
2004 12 20.27390 07 52 51.33 +18 59 28.2 19.8 R G96 – Mt. Lemmon Survey MPS 133063
2004 12 20.28373 07 52 50.89 +18 59 29.1 19.7 R G96 – Mt. Lemmon Survey MPS 133063
2004 12 20.29355 07 52 50.45 +18 59 29.5 19.8 R G96 – Mt. Lemmon Survey MPS 133063
2005 01 17.29702 07 27 06.75 +19 49 59.6 19.9   704 – Lincoln Laboratory ETS, New Mexico MPS 133063
2005 01 17.31129 07 27 05.81 +19 50 01.3 20.2   704 – Lincoln Laboratory ETS, New Mexico MPS 133063
2005 01 17.32600 07 27 04.97 +19 50 02.8 20.4   704 – Lincoln Laboratory ETS, New Mexico MPS 133063
2005 01 17.33986 07 27 04.15 +19 50 05.6 20.1   704 – Lincoln Laboratory ETS, New Mexico MPS 133063
2006 03 26.40674 13 35 11.76 -10 57 56.3 21.1 V G96 – Mt. Lemmon Survey MPS 166902
2006 03 26.41527 13 35 11.36 -10 57 54.0 21.2 V G96 – Mt. Lemmon Survey MPS 166902
2006 03 26.42366 13 35 10.96 -10 57 51.8 21.2 V G96 – Mt. Lemmon Survey MPS 166902
2006 03 26.43237 13 35 10.57 -10 57 49.7 21.0 V G96 – Mt. Lemmon Survey MPS 166902
2006 05 06.19237 13 04 00.76 -07 36 07.8 20.7 V G96 – Mt. Lemmon Survey MPS 171345
2006 05 06.19803 13 04 00.55 -07 36 06.6 20.6 V G96 – Mt. Lemmon Survey MPS 171345
2006 05 06.20357 13 04 00.37 -07 36 05.6 21.1 V G96 – Mt. Lemmon Survey MPS 171345
2006 05 06.20925 13 04 00.15 -07 36 04.1 21.0 V G96 – Mt. Lemmon Survey MPS 171345
2008 09 22.30660 03 27 59.90 +19 20 09.3 20.8 V G96 – Mt. Lemmon Survey MPS 256501
2008 09 22.31827 03 28 00.04 +19 20 09.3 20.6 V G96 – Mt. Lemmon Survey MPS 256501
2008 09 22.32991 03 28 00.15 +19 20 09.8 20.6 V G96 – Mt. Lemmon Survey MPS 256501
2008 09 22.34161 03 28 00.22 +19 20 09.8 20.5 V G96 – Mt. Lemmon Survey MPS 256501
2008 10 19.30841 03 21 13.41 +18 40 26.4 19.9 V 691 – Steward Observatory, Kitt Peak-Spacewatch MPS 260478
2008 10 19.32602 03 21 12.69 +18 40 23.2 19.9 V 691 – Steward Observatory, Kitt Peak-Spacewatch MPS 260478
2008 10 19.34363 03 21 12.00 +18 40 20.4 19.8 V 691 – Steward Observatory, Kitt Peak-Spacewatch MPS 260478
2008 10 23.25608 03 18 33.13 +18 27 41.3 20.1 V 691 – Steward Observatory, Kitt Peak-Spacewatch MPS 260478
2008 10 23.27372 03 18 32.31 +18 27 37.9 20.0 V 691 – Steward Observatory, Kitt Peak-Spacewatch MPS 260478
2008 10 23.29135 03 18 31.53 +18 27 34.4 20.2 V 691 – Steward Observatory, Kitt Peak-Spacewatch MPS 260478
2008 10 27.22549 03 15 32.07 +18 13 20.0 19.3 V 691 – Steward Observatory, Kitt Peak-Spacewatch MPS 261242
2008 10 27.24316 03 15 31.30 +18 13 16.9 19.4 V 691 – Steward Observatory, Kitt Peak-Spacewatch MPS 261242
2008 10 27.26082 03 15 30.43 +18 13 12.6 19.6 V 691 – Steward Observatory, Kitt Peak-Spacewatch MPS 261242
2008 10 27.31863 03 15 27.57 +18 13 00.0 19.5   704 – Lincoln Laboratory ETS, New Mexico MPS 261242
2008 10 27.33027 03 15 26.96 +18 12 56.5 20.2   704 – Lincoln Laboratory ETS, New Mexico MPS 261242
2008 10 27.34190 03 15 26.32 +18 12 55.3 19.9   704 – Lincoln Laboratory ETS, New Mexico MPS 261242
2008 11 01.25829 03 11 20.33 +17 53 17.4 19.0 C 704 – Lincoln Laboratory ETS, New Mexico MPS 288588
2008 11 01.26998 03 11 19.73 +17 53 13.6 19.5 C 704 – Lincoln Laboratory ETS, New Mexico MPS 288588
2008 11 01.28171 03 11 19.15 +17 53 12.4 19.6 C 704 – Lincoln Laboratory ETS, New Mexico MPS 288588
2008 11 01.29358 03 11 18.56 +17 53 07.8 19.6 C 704 – Lincoln Laboratory ETS, New Mexico MPS 288588
2008 11 07.20235 03 06 03.29 +17 27 39.2 19.6 V 691 – Steward Observatory, Kitt Peak-Spacewatch MPS 262986
2008 11 07.21996 03 06 02.28 +17 27 34.6 19.6 V 691 – Steward Observatory, Kitt Peak-Spacewatch MPS 262986
2008 11 07.24101 03 06 01.10 +17 27 29.0 19.5 V 691 – Steward Observatory, Kitt Peak-Spacewatch MPS 262986
2008 11 07.30490 03 05 57.55 +17 27 11.9 18.7 V 703 – Catalina Sky Survey MPS 264515
2008 11 07.31355 03 05 57.08 +17 27 10.1 19.3 V 703 – Catalina Sky Survey MPS 264515
2008 11 07.32221 03 05 56.50 +17 27 07.0 19.1 V 703 – Catalina Sky Survey MPS 264515
2008 11 07.33086 03 05 56.04 +17 27 05.6 18.9 V 703 – Catalina Sky Survey MPS 264515
2008 11 18.18561 02 56 14.13 +16 38 25.9 19.2 V 703 – Catalina Sky Survey MPS 266266
2008 11 18.19281 02 56 13.74 +16 38 24.6 19.2 V 703 – Catalina Sky Survey MPS 266266
2008 11 18.20008 02 56 13.34 +16 38 23.2 19.0 V 703 – Catalina Sky Survey MPS 266266
2008 11 19.33245 02 55 15.29 +16 33 25.7 19.9   704 – Lincoln Laboratory ETS, New Mexico MPS 266266
2008 11 19.34488 02 55 14.54 +16 33 21.5 19.6   704 – Lincoln Laboratory ETS, New Mexico MPS 266266
2008 11 19.37017 02 55 13.18 +16 33 14.5 19.8   704 – Lincoln Laboratory ETS, New Mexico MPS 266266
2008 11 20.21666 02 54 31.06 +16 29 34.2 19.5 V G96 – Mt. Lemmon Survey MPS 266266
2008 11 20.22222 02 54 30.78 +16 29 33.0 19.5 V G96 – Mt. Lemmon Survey MPS 266266
2008 11 20.22787 02 54 30.49 +16 29 31.7 19.6 V G96 – Mt. Lemmon Survey MPS 266266
2008 11 20.23341 02 54 30.20 +16 29 30.5 19.4 V G96 – Mt. Lemmon Survey MPS 266266
2008 11 24.20949 02 51 18.76 +16 12 47.4 19.5   704 – Lincoln Laboratory ETS, New Mexico MPS 267302
2008 11 24.22205 02 51 18.16 +16 12 44.3 19.9   704 – Lincoln Laboratory ETS, New Mexico MPS 267302
2008 11 24.23472 02 51 17.57 +16 12 40.2 19.8   704 – Lincoln Laboratory ETS, New Mexico MPS 267302
2008 11 24.24723 02 51 16.95 +16 12 38.2 20.1   704 – Lincoln Laboratory ETS, New Mexico MPS 267302
2008 12 01.20896 02 46 25.61 +15 46 21.4 19.8   704 – Lincoln Laboratory ETS, New Mexico MPS 268698
2008 12 01.22167 02 46 24.96 +15 46 18.2 20.2   704 – Lincoln Laboratory ETS, New Mexico MPS 268698
2008 12 01.23445 02 46 24.52 +15 46 17.1 19.7   704 – Lincoln Laboratory ETS, New Mexico MPS 268698
